www.pogodaiklimat.ru

Погода и климат >> Архив погоды >> Австралия >> Квинсленд >> Таргоминда


ПОГОДА в Таргоминде

  • Прогноз погоды в Таргоминде
  • Монитор погоды в Таргоминде

АРХИВ ПОГОДЫ в Таргоминде

Время (UTC), дата Ветер
(напр.,м/с)
 
Видим.   Явления Облачность Т
(С)
Тd
(С)
f
(%)
Тe
(С)
Тes
(С)
Комфортность P
(гПа)
Po
(гПа)
Тmin
(С)
Tmax
(С)
R
(мм)
R24
(мм)
S
(см)
02 12.08 СЗ 2 н/о н/о +14.6 -2.8 30 +15 +15 1024.6 1008.9 +6.9
03 12.08 Ю 3 н/о н/о +15.0 -3.3 28 +15 +15 1024.0 1008.3
05 12.08 В 3 н/о н/о +15.9 -4.1 25 +16 +16 1022.5 1006.8
06 12.08 Ю 4 н/о н/о +16.3 -3.7 25 +16 +16 1022.4 1006.7
08 12.08 Ю 4 н/о н/о +15.4 -4.0 26 +15 +15 1023.2 1007.5
09 12.08 Ю 2 н/о н/о +13.6 -4.1 29 +13 +13 1024.0 1008.3
11 12.08 Ю 2 н/о н/о +10.3 -4.1 36 +9 +9 1025.1 1009.4
12 12.08 Ю 3 н/о н/о +10.1 -4.6 35 +9 +9 1025.4 1009.6
14 12.08 Ю 3 н/о н/о +8.3 -4.5 40 +7 +7 1025.0 1009.3 +17.1
15 12.08 Ю 3 н/о н/о +8.2 -3.9 42 +6 +6 1024.5 1008.8
17 12.08 Ю 3 н/о н/о +7.0 -3.8 46 +5 +5 1023.7 1008.0
18 12.08 Ю 2 н/о н/о +5.3 -4.5 49 +3 +3 1024.1 1008.4
20 12.08 ЮВ 2 н/о н/о +3.8 -5.4 51 +2 +2 1025.2 1009.5
21 12.08 штиль 0 н/о н/о +3.3 -5.6 52 +3 +3 1026.1 1010.3
23 12.08 ЮВ 3 н/о н/о +10.8 +0.5 49 +10 +10 1027.4 1011.6
00 13.08 В 3 н/о н/о +14.7 +1.6 41 +14 +14 1027.6 1011.8
02 13.08 В 3 н/о н/о +16.9 -2.2 27 +17 +17 1026.3 1010.5 +3.3
03 13.08 ЮВ 3 н/о н/о +17.4 -2.8 25 +17 +17 1025.2 1009.5
05 13.08 В 3 н/о н/о +18.5 -3.0 23 +19 +19 1023.7 1008.0
08 13.08 В 3 н/о н/о +17.4 -3.9 23 +18 +18 1024.4 1008.7
09 13.08 ЮВ 3 н/о н/о +16.1 -2.4 28 +16 +16 1025.0 1009.3
11 13.08 ЮВ 3 н/о н/о +13.8 -2.6 32 +13 +13 1026.2 1010.4
12 13.08 ЮВ 3 н/о н/о +12.5 -2.9 34 +12 +12 1026.4 1010.6
14 13.08 В 3 н/о н/о +10.9 -2.5 39 +10 +10 1026.0 1010.2 +19.2
15 13.08 ЮВ 2 н/о н/о +9.2 -2.4 44 +8 +8 1026.0 1010.2
17 13.08 ЮВ 3 н/о н/о +9.1 -1.9 46 +7 +7 1025.6 1009.8
18 13.08 ЮВ 3 н/о н/о +8.3 -2.0 48 +7 +7 1025.7 1009.9
20 13.08 ЮВ 3 н/о н/о +7.3 -1.9 52 +5 +5 1026.3 1010.5
21 13.08 ЮВ 3 н/о н/о +6.6 -1.8 55 +4 +4 1027.5 1011.7
23 13.08 В 5 н/о н/о +13.3 -1.8 35 +12 +12 1028.2 1012.4
00 14.08 В 5 н/о н/о +15.5 -2.4 29 +14 +14 1028.1 1012.3
02 14.08 В 4 н/о н/о +19.6 -3.3 21 +19 +19 1026.7 1010.9 +6.6
03 14.08 В 5 н/о н/о +20.1 -4.2 19 +20 +20 1025.2 1009.5
05 14.08 Ю 2 н/о н/о +21.6 -5.3 16 +20 +20 1023.5 1007.8
06 14.08 СВ 3 н/о н/о +21.4 -6.3 15 +20 +20 1023.1 1007.4
08 14.08 штиль 0 н/о н/о +19.8 -6.7 16 +19 +19 1023.4 1007.7
09 14.08 Ю 3 н/о н/о +17.1 -4.2 23 +17 +17 1023.7 1008.0
11 14.08 ЮВ 3 н/о н/о +15.1 -5.3 24 +15 +15 1024.4 1008.7
12 14.08 ЮВ 3 н/о н/о +13.8 -5.3 26 +13 +13 1024.8 1009.1
14 14.08 ЮВ 3 н/о н/о +12.4 -5.1 29 +11 +11 1024.8 1009.1 +22.5
15 14.08 ЮВ 3 н/о н/о +11.8 -5.2 30 +11 +11 1024.8 1009.1
17 14.08 В 3 н/о н/о +9.6 -5.5 34 +8 +8 1024.1 1008.4
18 14.08 В 3 н/о н/о +9.3 -5.7 34 +8 +8 1023.7 1008.0
20 14.08 В 3 н/о н/о +9.0 -5.6 35 +7 +7 1024.2 1008.5
21 14.08 В 2 н/о н/о +8.5 -5.3 37 +7 +7 1024.6 1008.9
23 14.08 СВ 3 н/о н/о +15.2 -4.7 25 +15 +15 1025.6 1009.8
00 15.08 СВ 3 н/о н/о +18.2 -3.8 22 +18 +18 1025.6 1009.8
02 15.08 С 3 н/о н/о +23.0 -5.0 15 +21 +21 комфорт 1024.4 1008.7 +8.5
03 15.08 С 3 н/о н/о +24.3 -6.9 12 +22 +22 комфорт 1023.2 1007.5
05 15.08 СЗ 3 н/о н/о +25.3 -7.2 11 +23 +23 комфорт 1021.2 1005.5
06 15.08 СВ 2 н/о н/о +25.2 -7.3 11 +23 +23 комфорт 1020.6 1004.9
08 15.08 Ю 1 н/о н/о +22.9 -8.0 12 +21 +21 комфорт 1020.7 1005.0
09 15.08 Ю 2 н/о н/о +19.3 -7.9 15 +20 +20 1021.2 1005.5
11 15.08 штиль 0 н/о н/о +14.1 -7.3 22 +14 +14 1022.0 1006.3
12 15.08 В 3 н/о н/о +12.4 -6.0 27 +12 +12 1022.0 1006.3
14 15.08 СВ 2 н/о н/о +11.5 -6.8 27 +11 +11 1021.8 1006.1 +26.1
15 15.08 СВ 3 н/о н/о +11.0 -6.8 28 +10 +10 1021.3 1005.6
17 15.08 Ю 1 н/о н/о +9.6 -8.0 28 +10 +10 1020.6 1004.9
18 15.08 Ю 2 н/о н/о +8.7 -5.9 35 +8 +8 1020.5 1004.8
20 15.08 В 3 н/о н/о +8.1 -6.8 34 +6 +6 1020.6 1004.9
21 15.08 СВ 3 н/о н/о +6.5 -6.8 38 +5 +5 1021.1 1005.4
23 15.08 штиль 0 н/о н/о +16.1 -5.0 23 +16 +16 1021.9 1006.2
00 16.08 С 3 н/о н/о +20.7 -4.4 18 +21 +21 комфорт 1021.9 1006.2
02 16.08 С 3 н/о н/о +25.2 -5.1 13 +23 +23 комфорт 1020.8 1005.1 +6.5
03 16.08 СЗ 4 н/о н/о +26.2 -4.4 13 +24 +24 комфорт 1019.8 1004.1
05 16.08 З 5 н/о н/о +27.1 -4.7 12 +24 +24 комфорт 1018.4 1002.8
06 16.08 З 2 н/о н/о +26.7 -5.0 12 +24 +24 комфорт 1018.2 1002.6
08 16.08 З 2 н/о н/о +24.0 -7.1 12 +22 +22 комфорт 1018.2 1002.6
09 16.08 ЮЗ 1 н/о н/о +19.8 -7.5 15 +21 +21 комфорт 1018.7 1003.1
11 16.08 штиль 0 н/о н/о +14.9 -4.9 25 +15 +15 1019.4 1003.7
12 16.08 Ю 3 н/о н/о +14.8 -5.0 25 +15 +15 1019.4 1003.7
14 16.08 ЮВ 2 н/о н/о +11.4 -3.9 34 +11 +11 1018.7 1003.1 +27.3
15 16.08 В 2 н/о н/о +10.3 -4.1 36 +9 +9 1018.5 1002.9
17 16.08 С 3 н/о н/о +9.8 -5.3 34 +9 +9 1017.9 1002.3
18 16.08 С 2 н/о н/о +10.0 -6.8 30 +10 +10 1018.0 1002.4
20 16.08 штиль 0 н/о н/о +8.2 -5.3 38 +8 +8 1018.4 1002.8
21 16.08 штиль 0 н/о н/о +8.2 -4.9 39 +8 +8 1019.0 1003.3
23 16.08 С 2 н/о н/о +16.6 -4.0 24 +17 +17 1019.7 1004.0
00 17.08 С 2 н/о н/о +22.1 -5.7 15 +21 +21 комфорт 1019.5 1003.8
02 17.08 С 4 н/о н/о +25.9 -4.6 13 +23 +23 комфорт 1018.1 1002.5 +7.9
03 17.08 В 2 н/о н/о +26.1 -4.4 13 +24 +24 комфорт 1017.3 1001.7
05 17.08 ЮЗ 1 н/о н/о +27.4 -5.6 11 +24 +24 комфорт 1016.0 1000.4
06 17.08 С 2 н/о н/о +27.0 -4.8 12 +24 +24 комфорт 1015.5 999.9
08 17.08 штиль 0 н/о н/о +24.9 -4.4 14 +23 +23 комфорт 1015.9 1000.3
09 17.08 В 3 н/о н/о +21.6 -3.0 19 +21 +21 комфорт 1016.2 1000.6
11 17.08 ЮВ 2 н/о н/о +18.0 -1.8 26 +19 +19 1017.1 1001.5
12 17.08 В 3 н/о н/о +15.3 -3.6 27 +15 +15 1017.0 1001.4
14 17.08 В 3 н/о н/о +13.9 -2.1 33 +13 +13 1016.3 1000.7 +28.0
15 17.08 СВ 3 н/о н/о +14.6 -4.2 27 +14 +14 1016.1 1000.5
17 17.08 штиль 0 н/о н/о +12.0 -4.6 31 +12 +12 1015.3 999.7
18 17.08 штиль 0 н/о н/о +11.2 -5.3 31 +11 +11 1014.9 999.3
20 17.08 СВ 2 н/о н/о +11.9 -3.4 34 +11 +11 1015.1 999.5
21 17.08 СВ 3 н/о н/о +11.3 -3.2 36 +10 +10 1015.5 999.9
23 17.08 С 4 н/о н/о +19.8 -0.8 25 +20 +20 1015.7 1000.1
00 18.08 С 6 н/о н/о +23.4 +1.7 24 +23 +23 комфорт 1015.4 999.8
02 18.08 СЗ 7 н/о н/о +29.5 -4.0 11 +26 +26 жарко 1014.3 998.7 +10.2
03 18.08 СЗ 7 н/о н/о +30.5 -4.5 10 +27 +27 жарко 1013.5 997.9
05 18.08 З 9 н/о н/о +30.5 -4.5 10 +27 +27 жарко 1012.2 996.7
06 18.08 З 10 н/о н/о +29.4 -5.4 10 +26 +26 жарко 1012.7 997.1
08 18.08 ЮЗ 7 н/о н/о +23.8 +0.8 22 +23 +23 комфорт 1014.6 999.0
09 18.08 ЮЗ 7 н/о н/о +22.0 +0.5 24 +21 +21 комфорт 1016.1 1000.5
11 18.08 ЮЗ 8 9000 м 10/10 600 м
[]
+19.3 -0.7 26 +19 +19 1018.2 1002.6
12 18.08 ЮЗ 8 н/о н/о +17.5 -5.7 20 +16 +16 1019.3 1003.6
14 18.08 ЮЗ 6 н/о н/о +15.0 -4.8 25 +14 +14 1020.6 1004.9 +31.7
15 18.08 ЮЗ 5 н/о н/о +13.8 -4.8 27 +13 +13 1020.9 1005.2
17 18.08 З 3 н/о н/о +10.6 -5.0 33 +9 +9 1021.1 1005.4
18 18.08 З 3 н/о н/о +9.7 -5.0 35 +8 +8 1021.0 1005.3
20 18.08 ЮЗ 4 н/о н/о +9.3 -5.0 36 +7 +7 1022.6 1006.9
21 18.08 ЮЗ 4 н/о н/о +9.3 -2.9 42 +7 +7 1023.7 1008.0
23 18.08 Ю 7 н/о н/о +11.6 -0.2 44 +9 +9 1026.0 1010.2
00 19.08 Ю 7 н/о н/о +12.8 -0.1 41 +11 +11 1026.6 1010.8

 

Местоположение метеостанции Таргоминда (Квинсленд, Австралия): широта -27.98 долгота 143.81 высота над уровнем моря 132 м.

В архиве по умолчанию представлена погода в Таргоминде за последнюю неделю. Архивные данные за месяц целиком и за предыдущие месяцы, начиная с января 2011 года, Вы можете получить, выбрав интересующий диапазон дат из раскрывающегося списка и нажав кнопку "Ввод!".


*Определитесь, кто Вы:
робот инопланетянин человек

Внимание! Время в таблицах - всемирное. Для получения местного времени необходимо прибавить поправку, которая равна 10 ч.

Смотрите также архив погоды в соседних городах и на ближайших метеорологических станциях:

Погода в Месторождении Ballera (Квинсленд, Австралия) (206 км)
Погода в Тибообере (Новый Южный Уэльс, Австралия) (237 км)
Погода в Чарвилле (Квинсленд, Австралия) (299 км)
Погода в Бурке (Новый Южный Уэльс, Австралия) (309 км)
Погода в Уафт Клифс (Новый Южный Уэльс, Австралия) (327 км)
Погода в Мумбе (Южная Австралия, Австралия) (355 км)
Погода в Уилкании (Новый Южный Уэльс, Австралия) (396 км)
Погода в Фоулерс Гэп (Новый Южный Уэльс, Австралия) (401 км)
Погода в Блэколле (Квинсленд, Австралия) (428 км)
Погода в Кобаре (Новый Южный Уэльс, Австралия) (435 км)

Пояснения к столбцам:

Ветер - указаны скорость ветра в м/с - средняя за 10 мин, порывы в срок и между сроками (в фигурных скобках) и направление, откуда дует ветер: С - северный, СВ - северо-восточный, В - восточный, ЮВ - юго-восточный, Ю - южный, ЮЗ - юго-западный, З - западный, СЗ - северо-западный.
Видимость - горизонтальная дальность видимости в метрах или километрах. При видимости от 1 до 10 км при отсутствии осадков обычно наблюдается дымка, при ухудшении видимости до 1 км и менее - туман. В сухую погоду видимость может ухудшаться дымом, пылью или мглою.
Явления - указаны атмосферные явления, наблюдавшиеся в срок или в последний час перед сроком; фигурными скобками обозначены явления, наблюдавшиеся между сроками (за 1-3 часа до срока); квадратными скобками обозначены град или гололедные отложения с указанием их диаметра в мм.
Облачность - указаны через наклонную черту общая и нижняя облачность в баллах и высота нижней границы облаков в метрах; квадратными скобками обозначены формы облаков: Ci - перистые, Cs - перисто-слоистые, Cc - перисто-кучевые, Ac - высококучевые, As - высокослоистые, Sc - слоисто-кучевые, Ns - слоисто-дождевые, Cu - кучевые, Cb - кучево-дождевые. Подробнее классификацию облаков см. в Атласе облаков (PDF).
T - Температура воздуха - температура, измеренная на высоте 2 м над землей.
Td - Температура точки росы - температура, при понижении до которой содержащийся в воздухе водяной пар достигнет насыщения.
f - Относительная влажность воздуха - влажноcть воздуха, измеренная на высоте 2 м над землей.
Te - Эффективная температура - температура, которую ощущает одетый по сезону человек в тени. Характеристика душности погоды. При расчете учитывается влияние влажности воздуха и скорости ветра на теплоощущения человека.
Tes - Эффективная температура на солнце - температура, которую ощущает человек, с поправкой на солнечный нагрев. Характеристика знойности погоды. Зависит от высоты солнца над горизонтом, облачности и скорости ветра. Ночью, в пасмурную погоду, а также при ветре 12 м/с и более поправка равна нулю.
P - Атмосферное давление - приведенное к уровню моря атмосферное давление.
Po - Атмосферное давление - измеренное на уровне метеостанции атмосферное давление.
Tmin - Минимальная температура - минимум температуры воздуха на высоте 2 м над землей.
Tmax - Максимальная температура - максимум температуры воздуха на высоте 2 м над землей.
R - Количество осадков - Количество выпавших осадков за период времени, мм. При наведении курсора мыши на число - период времени, за который выпало указанное количество осадков.
R24 - Количество осадков - Количество выпавших осадков за 24 часа, мм.
S - Снежный покров - Высота снежного покрова, см. При наведении курсора мыши на число - состояние снежного покрова и степень покрытия местности в баллах.